[[{"header":{"parameterUnit":"m.s-1","parameterCategory":1,"la1":30.2991,"la2":30.254,"lo1":-89.0895,"lo2":-89.0444,"dy":0.0017,"dx":0.0017,"nx":28,"ny":28,"refTime":"2025-05-29T03:00:00:Z","depth":0,"parameterNumber":2,"parameterNumberName":"U-component_of_WINDS"},"data":[0,0,0,0,0,0,0,0,0,0,0,0,0,0,0,0,0,0,0,0,0,0,0,0,0,0,0,0,0,0,0,0,0,0,0,0,0,0,0,0,0,0,0,0,0,0,0,0,0,0,0,0,0,0,0,0,0,0,3.353,3.3531,0,3.3623,3.3624,3.3625,3.3571,3.3568,3.3565,3.3563,3.3656,3.3661,3.3666,0,0,0,0,0,0,0,0,0,0,0,0,0,3.3303,3.3307,3.353,3.3531,3.3533,3.3623,3.3624,3.3625,3.3571,3.3568,3.3565,3.3562,3.3655,3.3661,3.3667,0,0,0,0,0,0,0,0,0,0,0,0,0,3.3399,3.3309,3.353,3.3516,3.3516,3.3623,3.3624,3.3626,3.3572,3.3568,3.3564,3.356,3.3653,3.366,3.3667,3.3792,0,0,3.369,3.3693,0,0,0,0,0,0,0,0,3.3394,3.3407,3.3517,3.3518,3.3517,3.3581,3.3578,3.3681,3.3573,3.3551,3.3563,3.3558,3.3635,3.3643,3.3669,3.3797,3.3801,3.3691,3.3695,3.3698,3.3701,0,0,0,0,0,0,0,3.3387,3.3403,3.3567,3.3519,3.3519,3.3504,3.3514,3.3597,3.3613,3.3552,3.3548,3.356,3.3634,3.3662,3.3671,3.3802,3.3691,3.3697,3.3702,3.3705,3.4031,3.4035,0,0,0,0,0,0,3.3382,3.3398,3.3564,3.357,3.3445,3.3512,3.3522,3.3565,3.3612,3.3616,3.3563,3.3557,3.3651,3.3662,3.3674,3.3819,3.3698,3.3705,3.371,3.4027,3.4032,3.4037,0,0,0,0,0,0,3.3377,3.3397,3.356,3.3483,3.3502,3.352,3.3568,3.3569,3.3597,3.3621,3.3623,3.359,3.3649,3.3664,3.3762,3.3822,3.3709,3.3715,3.4022,3.4028,3.4034,3.4113,0,0,0,0,0,0,3.3371,3.3396,3.3444,3.3484,3.3507,3.3648,3.3572,3.3573,3.361,3.3603,3.3646,3.365,3.3647,3.3751,3.3769,3.383,3.3721,3.4017,3.4025,3.4032,3.4105,3.4121,3.4135,0,0,0,0,0,3.3363,3.3464,3.3447,3.3467,3.3568,3.3652,3.3664,3.3659,3.3615,3.3663,3.3678,3.3648,3.3813,3.3762,3.3782,3.3846,3.4013,3.4022,3.4032,3.4098,3.4118,3.4135,0,0,0,0,0,0,3.3431,3.3469,3.3451,3.3568,3.3607,3.3642,3.3703,3.3681,3.3733,3.3724,3.3716,3.3726,3.3828,3.3847,3.3789,3.3966,3.3906,3.392,3.395,3.3969,3.3983,3.3975,3.3727,0,0,0,0,0,3.3459,3.3525,3.3554,3.3655,3.3675,3.3686,3.3722,3.3715,3.3755,3.3771,3.3793,3.3832,3.3892,3.3932,3.3989,3.4109,3.4115,3.4162,3.4177,3.4189,3.42,3.426,3.428,3.4068,3.4068,3.4067,0,0,3.3519,3.3548,3.359,3.3669,3.3698,3.3764,3.37,3.3774,3.3822,3.3782,3.3875,3.3893,3.3936,3.4044,3.4093,3.4063,3.426,3.4201,3.4211,3.4215,3.4272,3.4292,3.431,3.4074,3.4073,3.4072,0,0,3.3661,3.3691,3.3776,3.3806,3.3851,3.3857,3.3877,3.3915,3.3925,3.4019,3.3988,3.4045,3.4151,3.4181,3.421,3.436,3.4333,3.4379,3.4456,3.4515,3.4531,3.4546,3.4595,3.4613,3.4391,3.4391,3.4391,0,3.3729,3.3828,3.3822,3.3897,3.393,3.3897,3.3981,3.4011,3.4072,3.4095,3.4061,3.4189,3.4216,3.4329,3.4365,3.4392,3.4412,3.4373,3.453,3.4544,3.4558,3.4605,3.4624,3.4396,3.4395,3.4395,3.4394,0,3.3907,3.3977,3.404,3.4098,3.4139,3.4219,3.4222,3.4265,3.4254,3.4262,3.4356,3.4387,3.4447,3.4474,3.4465,3.4585,3.4564,3.4531,3.4469,3.4583,3.4626,3.4645,3.4403,3.4401,3.44,3.4399,0,0,3.4094,3.4147,3.417,3.4194,3.424,3.4292,3.4369,3.4427,3.4462,3.4505,3.4566,3.4655,3.4623,3.4656,3.4649,3.4701,3.4812,3.466,3.4661,3.4684,3.4941,3.4963,3.4984,3.4796,3.4799,3.4802,3.4936,0,3.4235,3.4369,3.4364,3.4488,3.4549,3.4517,3.4582,3.4617,3.4627,3.4679,3.469,3.4751,3.4706,3.4725,3.4775,3.4788,3.4863,3.4779,3.485,3.4852,3.4836,3.5008,3.5032,3.5157,3.4953,3.4956,3.4958,0,3.4418,3.4465,3.4595,3.4627,3.4653,3.4713,3.4764,3.4815,3.4852,3.4855,3.4891,3.4875,3.495,3.4889,3.4989,3.4932,3.4961,3.4971,3.4976,3.4979,3.491,3.5012,3.5197,3.5214,3.4986,3.4984,3.4982,0,3.4536,3.4632,3.4721,3.4743,3.4785,3.4827,3.4846,3.4879,3.4914,3.4959,3.498,3.5034,3.5062,3.5103,3.5101,3.5057,3.5201,3.5141,3.5203,3.5203,3.5233,3.523,3.5421,3.5258,3.5258,3.5257,3.5257,0,3.4692,3.4771,3.4773,3.4828,3.4914,3.4908,3.4993,3.5008,3.5037,3.5092,3.5069,3.5121,3.5116,3.5168,3.5167,3.5248,3.5263,3.5265,3.5263,3.5265,3.5264,3.5281,3.5271,3.5262,3.5261,3.526,3.526,0,3.4837,3.4842,3.4936,3.4967,3.4977,3.5039,3.5065,3.5115,3.5122,3.5191,3.5207,3.5219,3.5278,3.528,3.5349,3.5348,3.5445,3.5436,3.5433,3.5429,3.549,3.5483,3.5696,3.5721,3.5545,3.5547,3.5549,0,3.4934,3.4994,3.5031,3.5065,3.5087,3.5144,3.5178,3.5173,3.521,3.5254,3.5298,3.5355,3.54,3.5496,3.5509,3.556,3.5549,3.562,3.5557,3.5555,3.5545,3.554,3.5544,3.5632,3.5634,3.5635,3.5637,0,3.5105,3.5104,3.5154,3.5205,3.5246,3.5286,3.5323,3.5353,3.5351,3.5393,3.5453,3.5488,3.5556,3.5612,3.5661,3.5679,3.5657,3.5657,3.5673,3.5674,3.5667,3.5667,3.5462,3.5651,3.565,3.5649,3.5648,3.5647,3.5226,3.5276,3.5308,3.5364,3.5391,3.5425,3.5473,3.5485,3.5535,3.559,3.5584,3.565,3.5682,3.5745,3.5767,3.5817,3.5792,3.5817,3.5823,3.5828,3.5832,3.5663,3.5827,3.5826,3.5826,3.5826,3.5825,0,3.5391,3.541,3.5462,3.5513,3.5556,3.5532,3.5571,3.5608,3.5666,3.5698,3.5742,3.5808,3.5861,3.5878,3.5929,3.5965,3.5956,3.5978,3.5973,3.5977,3.5854,3.5832,3.5984,3.5984,3.5984,3.5984,3.5984,3.5984,3.5482,3.5564,3.5566,3.566,3.5678,3.5741,3.5765,3.5795,3.582,3.5895,3.5939,3.595,3.5974,3.6026,3.6073,3.6076,3.6094,3.612,3.6119,3.6003,3.5986,3.5971,3.5951,3.6125,3.6125,3.6237,3.6238,3.6239]},{"header":{"parameterUnit":"m.s-1","parameterCategory":1,"la1":30.2991,"la2":30.254,"lo1":-89.0895,"lo2":-89.0444,"dy":0.0017,"dx":0.0017,"nx":28,"ny":28,"refTime":"2025-05-29T03:00:00:Z","depth":0,"parameterNumber":3,"parameterNumberName":"V-component_of_WINDS"},"data":[0,0,0,0,0,0,0,0,0,0,0,0,0,0,0,0,0,0,0,0,0,0,0,0,0,0,0,0,0,0,0,0,0,0,0,0,0,0,0,0,0,0,0,0,0,0,0,0,0,0,0,0,0,0,0,0,0,0,2.2262,2.2264,0,2.2366,2.2368,2.2369,2.2349,2.2347,2.2346,2.2344,2.2449,2.2454,2.2458,0,0,0,0,0,0,0,0,0,0,0,0,0,2.2045,2.2049,2.2262,2.2264,2.2265,2.2366,2.2368,2.2369,2.235,2.2347,2.2345,2.2343,2.2448,2.2453,2.2458,0,0,0,0,0,0,0,0,0,0,0,0,0,2.2144,2.2051,2.2262,2.2267,2.2269,2.2366,2.2368,2.2369,2.235,2.2347,2.2345,2.2342,2.2446,2.2453,2.2459,2.2557,0,0,2.248,2.2483,0,0,0,0,0,0,0,0,2.2138,2.2151,2.2265,2.2267,2.2269,2.2342,2.233,2.2432,2.2351,2.2319,2.2344,2.2341,2.2416,2.2425,2.245,2.2562,2.2566,2.2481,2.2485,2.2488,2.249,0,0,0,0,0,0,0,2.2131,2.2147,2.2303,2.2267,2.2269,2.2264,2.2275,2.2349,2.2382,2.2322,2.2321,2.2333,2.2416,2.2444,2.2453,2.2568,2.248,2.2486,2.2491,2.2493,2.2764,2.2767,0,0,0,0,0,0,2.2123,2.2141,2.23,2.2307,2.2195,2.227,2.2283,2.2321,2.2381,2.2387,2.2336,2.2332,2.2434,2.2445,2.2456,2.2574,2.2488,2.2494,2.2498,2.2761,2.2764,2.2768,0,0,0,0,0,0,2.2118,2.2137,2.2296,2.2224,2.2244,2.2277,2.2321,2.2325,2.2353,2.2391,2.2397,2.2358,2.2432,2.2447,2.2532,2.2577,2.2497,2.2503,2.2757,2.2762,2.2766,2.2811,0,0,0,0,0,0,2.2112,2.2136,2.2174,2.2225,2.2247,2.237,2.2324,2.2329,2.2365,2.2361,2.2414,2.242,2.2431,2.2522,2.2539,2.2585,2.2509,2.2753,2.2759,2.2765,2.2805,2.2816,2.2826,0,0,0,0,0,2.2104,2.2182,2.2176,2.2195,2.2296,2.2373,2.2386,2.2397,2.2368,2.2406,2.2431,2.2418,2.257,2.2531,2.255,2.2599,2.275,2.2757,2.2764,2.2801,2.2814,2.2825,0,0,0,0,0,0,2.2135,2.2189,2.2182,2.2279,2.2322,2.237,2.2418,2.2411,2.2463,2.2457,2.2469,2.2481,2.2567,2.2592,2.2547,2.2696,2.2656,2.2667,2.2677,2.269,2.27,2.2692,2.2514,0,0,0,0,0,2.2153,2.2212,2.2255,2.2336,2.2358,2.2384,2.2419,2.2424,2.2468,2.2486,2.2517,2.2561,2.2618,2.2655,2.271,2.2809,2.2819,2.2852,2.2862,2.287,2.2879,2.2932,2.2947,2.2791,2.2791,2.279,0,0,2.219,2.2227,2.2264,2.2343,2.2377,2.2437,2.24,2.2465,2.251,2.2496,2.2578,2.2602,2.2652,2.2744,2.2786,2.2767,2.2925,2.2879,2.2885,2.289,2.2941,2.2956,2.2969,2.2795,2.2795,2.2794,0,0,2.229,2.2324,2.2394,2.2429,2.2481,2.2498,2.2515,2.2564,2.258,2.2662,2.2653,2.2706,2.2805,2.284,2.2871,2.2983,2.2973,2.3,2.3054,2.3105,2.3118,2.3128,2.3168,2.3182,2.301,2.301,2.301,0,2.233,2.2421,2.2431,2.2498,2.2533,2.2523,2.2595,2.2628,2.2694,2.2719,2.2696,2.282,2.2852,2.2952,2.2979,2.3005,2.3024,2.2994,2.3115,2.3126,2.3136,2.3174,2.3189,2.3013,2.3012,2.3012,2.3012,0,2.2467,2.253,2.2581,2.2646,2.2687,2.2755,2.2776,2.2816,2.2817,2.2836,2.292,2.2959,2.3021,2.3045,2.3047,2.3145,2.3132,2.3112,2.3072,2.3154,2.319,2.3204,2.3017,2.3016,2.3015,2.3014,0,0,2.2588,2.2658,2.2677,2.2706,2.2762,2.2811,2.2878,2.294,2.2973,2.302,2.3076,2.316,2.3142,2.3177,2.3183,2.3228,2.3314,2.3203,2.3204,2.3222,2.3423,2.3437,2.3454,2.3307,2.331,2.3312,2.3419,0,2.2692,2.2812,2.2824,2.2931,2.2989,2.2981,2.304,2.308,2.31,2.3151,2.3173,2.3232,2.3204,2.3225,2.327,2.3294,2.3354,2.3286,2.3359,2.3362,2.3347,2.3473,2.3488,2.3587,2.3433,2.3435,2.3437,0,2.283,2.288,2.2993,2.3041,2.3066,2.3118,2.3175,2.3225,2.327,2.3281,2.332,2.332,2.3389,2.3346,2.3441,2.3395,2.3425,2.3442,2.3446,2.3453,2.3404,2.3482,2.3618,2.3633,2.3459,2.3457,2.3456,0,2.2906,2.3002,2.3082,2.3107,2.3165,2.3202,2.3228,2.3271,2.3307,2.3356,2.3379,2.3436,2.3467,2.3511,2.3526,2.3493,2.362,2.3578,2.363,2.363,2.3657,2.3655,2.3799,2.3677,2.3677,2.3677,2.3677,0,2.302,2.309,2.3117,2.3166,2.3244,2.3256,2.3332,2.3356,2.3394,2.3447,2.3443,2.3493,2.351,2.3562,2.3574,2.365,2.3665,2.3675,2.3677,2.3675,2.3674,2.3695,2.3688,2.3681,2.368,2.3679,2.3679,0,2.3118,2.314,2.3226,2.3274,2.3287,2.3342,2.3383,2.343,2.3449,2.3516,2.3532,2.3562,2.3623,2.3642,2.3716,2.3724,2.3814,2.381,2.3798,2.3798,2.3849,2.3844,2.4012,2.4034,2.3898,2.3899,2.39,0,2.319,2.3243,2.3296,2.3332,2.3359,2.3417,2.3453,2.3467,2.3506,2.3561,2.3602,2.3663,2.3712,2.3811,2.3838,2.3895,2.3892,2.3947,2.3901,2.3897,2.3892,2.3889,2.3894,2.3956,2.3957,2.3958,2.3959,0,2.3314,2.3322,2.3375,2.3432,2.3476,2.3522,2.3566,2.3595,2.3615,2.3658,2.3721,2.376,2.3836,2.3896,2.3953,2.3979,2.3973,2.3974,2.3989,2.3987,2.3978,2.3983,2.3822,2.397,2.3969,2.3968,2.3967,2.3967,2.3401,2.3448,2.3492,2.3552,2.3586,2.3627,2.3674,2.3698,2.3751,2.3814,2.3819,2.3887,2.3931,2.4007,2.4036,2.4089,2.4073,2.4095,2.41,2.4105,2.4109,2.397,2.41,2.4099,2.4099,2.4099,2.4099,0,2.3524,2.3553,2.3607,2.3669,2.3715,2.3706,2.3753,2.3793,2.3853,2.3894,2.3943,2.4015,2.4074,2.4106,2.4164,2.4201,2.4199,2.4215,2.4212,2.4218,2.412,2.4101,2.4216,2.4216,2.4216,2.4215,2.4215,2.4215,2.3594,2.3672,2.3686,2.3781,2.3809,2.3876,2.3904,2.3941,2.3974,2.4055,2.4104,2.4125,2.4162,2.4223,2.4276,2.4284,2.4305,2.4324,2.433,2.4237,2.4225,2.4214,2.4196,2.4328,2.4328,2.4423,2.4424,2.4425]}]]